Regional Weather Roundup
Issued by NWS

Home | Current Version | Previous Version | Text Only | Print | Product List | Glossary On
Versions: 1 2 3 4 5 6 7 8 9 10 11 12 13 14 15 16 17 18 19 20 21 22 23 24 25 26 27 28 29 30 31 32 33 34 35 36 37 38 39 40 41 42 43 44 45 46 47 48 49 50
000
ASUS43 KMKX 222200
RWRWI

WISCONSIN REGIONAL WEATHER ROUNDUP
NATIONAL WEATHER SERVICE MILWAUKEE/SULLIVAN WI
500 PM CDT TUE AUG 22 2017

NOTE: "FAIR" INDICATES FEW OR NO CLOUDS BELOW 12,000 FEET WITH NO
SIGNIFICANT WEATHER AND/OR OBSTRUCTIONS TO VISIBILITY.

WIZ001-002-006>008-014>016-023>028-222300-
NORTHWEST WISCONSIN

CITY           SKY/WX    TMP DP  RH WIND       PRES   REMARKS
SUPERIOR ARPT    N/A     67  54  63 NW10G18   29.95S
ASHLAND        CLOUDY    67  52  58 W13G20    29.93R
HAYWARD        CLOUDY    68  49  50 W8G20     29.97R
SIREN          PTSUNNY   71  46  40 NW15      30.00S
CUMBERLAND     PTSUNNY   68  46  45 W13       30.00S
RICE LAKE      MOSUNNY   70  47  43 W15G23    30.00S
CHETEK         MOSUNNY   72  48  43 NW10G24   29.99S
LADYSMITH      MOSUNNY   69  49  48 NW20      29.99R
EAU CLAIRE     NOT AVBL
MENOMONIE      SUNNY     73  48  42 W12G25    30.00R
NEW RICHMOND   SUNNY     69  44  40 NW12G17   30.02S
OSCEOLA        MOSUNNY   73  48  41 NW10      30.04S
$$

WIZ003>005-009-010-017-018-222300-
NORTH CENTRAL WISCONSIN

CITY           SKY/WX    TMP DP  RH WIND       PRES   REMARKS
MANITOWISH WTR PTSUNNY   65  50  58 NW17G26   29.91F
ARBOR VITAE    MOSUNNY   66  50  55 W16G24    29.92S
WOODRUFF       MOSUNNY   66  50  55 W16G24    29.92S
RHINELANDER    LGT RAIN  64  50  60 W16G22    29.93S
EAGLE RIVER    LGT RAIN  59  51  74 NW8       29.92R
LAND O LAKES   PTSUNNY   63  49  61 W10       29.92R
PHILLIPS       CLOUDY    65  49  55 NW9G24    29.95R
TOMAHAWK         N/A     63  51  65 NW7G20    29.94S
MEDFORD        MOSUNNY   67  47  48 W13G23    29.95S
MERRILL        NOT AVBL
$$

WIZ029-030-035-036-043>047-222300-
CENTRAL WISCONSIN

CITY           SKY/WX    TMP DP  RH WIND       PRES   REMARKS
WAUSAU         MOSUNNY   71  46  40 NW18G29   29.92S
MOSINEE        MOSUNNY   70  48  46 W17G29    29.94S
MARSHFIELD     MOSUNNY   71  49  45 NW16G23   29.95S
STEVENS POINT  MOSUNNY   70  46  42 NW13G22   29.94S
WAUPACA        MOSUNNY   76  46  34 W12G25    29.93S
WAUTOMA        MOSUNNY   74  48  39 NW18G26   29.95R
WISC RAPIDS    MOSUNNY   74  50  42 NW16G25   29.96F
CAMP DOUGLAS   NOT AVBL
$$

WIZ011>013-019>022-031-037>040-048>050-222300-
NORTHEAST WISCONSIN

CITY           SKY/WX    TMP DP  RH WIND       PRES   REMARKS
ANTIGO         PTSUNNY   65  46  51 NW15G25   29.93R
SHAWANO        MOSUNNY   76  49  38 W13G18    29.89S
OCONTO         MOSUNNY   73  48  40 W10G17    29.86S
STURGEON BAY   PTSUNNY   71  50  47 NW16G24   29.87R
GREEN BAY      MOSUNNY   73  51  46 NW16G23   29.89S
MANITOWOC      NOT AVBL
APPLETON       PTSUNNY   73  43  33 NW15G25   29.91R
CLINTONVILLE   MOSUNNY   73  43  33 NW14G20   29.90S
OSHKOSH        MOSUNNY   73  51  46 NW13      29.92R
$$

WIZ032>034-041-042-053>061-222300-
SOUTHWEST WISCONSIN

CITY           SKY/WX    TMP DP  RH WIND       PRES   REMARKS
LA CROSSE      SUNNY     78  48  34 NW14      29.99F
SPARTA         PTSUNNY   73  49  41 NW15G22   30.00S
VIROQUA        MOSUNNY   71  51  50 NW16G22   30.02S
BOSCOBEL       MOSUNNY   74  50  42 NW9       30.01R
PRAIRIE DU CHI MOSUNNY   73  45  36 NW10G17   30.01S
PLATTEVILLE    MOSUNNY   73  51  45 NW10G16   30.01S
$$

WIZ056-057-062-063-064-067-068-222300-
SOUTH CENTRAL WISCONSIN

CITY           SKY/WX    TMP DP  RH WIND       PRES   REMARKS
REEDSBURG      PTSUNNY   74  49  40 NW16      29.98S
BARABOO/DELLS  MOSUNNY   73  45  36 NW15      29.97S
LONE ROCK      NOT AVBL
MINERAL POINT  SUNNY     73  46  38 NW10G18   30.01R
MADISON        MOSUNNY   74  50  42 NW14G21   29.96R
MIDDLETON      MOSUNNY   75  49  40 NW15G21   29.98R
WATERTOWN      MOSUNNY   74  50  42 NW16G22   29.94S
MONROE         SUNNY     73  46  38 NW10G17   29.98S
JANESVILLE     PTSUNNY   77  48  36 NW15G21   29.95R
$$

WIZ051-052-058>065-066-070>072-222300-
SOUTHEAST WISCONSIN

CITY           SKY/WX    TMP DP  RH WIND       PRES   REMARKS
MILWAUKEE      PTSUNNY   77  49  37 N17       29.92R
WAUKESHA       MOSUNNY   70  48  46 NW15G21   29.95R
MILWAUKEE/TIMM MOSUNNY   73  43  33 NW18G30   29.93R
RACINE         MOSUNNY   77  51  40 NW13      29.93R
KENOSHA        SUNNY     77  50  38 NW13G24   29.93R
FOND DU LAC    MOSUNNY   72  49  44 NW13      29.93R
SHEBOYGAN      PTSUNNY   71  51  49 NW12G23   29.91R
WEST BEND      SUNNY     72  46  40 NW14G21   29.92S
JUNEAU         PTSUNNY   72  49  44 W10G18    29.95S
$$

LSZ147-162-222300-
LAKE SUPERIOR

STATION/POSITION TIME  TEMP    WIND        PRES    WAVE
                       AIR SEA DIR/SP/G            HT/PER
                 (UTC) (F)     (DEG/KT/KT) (MB)    (FT/S)
W MID LAKE BUOY  2050   62 60  270/ 19/ 23 1010.0F   3/ 5
DEVILS ISLAND    2100   61     290/ 11/ 12 1012.3R
SAXON HARBOR     2140   68     260/  6/ 10 1012.5R
$$

LMZ867-665-643>646-222300-
LAKE MICHIGAN

STATION/POSITION TIME  TEMP    WIND        PRES    WAVE
                       AIR SEA DIR/SP/G            HT/PER
                 (UTC) (F)     (DEG/KT/KT) (MB)    (FT/S)
S GREEN BAY BUOY 2130   72 71  290/ 12/ 16 1011.4R
N MID LAKE BUOY  2050   68 67  290/ 19/ 21 1009.6R   3/ 5
NORTHPORT PIER   2140   71     300/ 12/ 18 1010.2S
KEWAUNEE LAKESHO 2130   74     330/ 11/ 19 1010.9R
SHEBOYGAN LAKESH 2100   72     300/ 14/ 17 1011.8R
PORT WASHINGTON  2130   76     300/  9/ 21 1013.2R
ATWATER BUOY     2009   72 67  310/ 14/ 17 1012.5R
MILWAUKEE LAKESH 2130   74     300/ 17/ 22   N/A
S MID LAKE BUOY  2050   71 72  350/ 16/ 17 1011.9R   3/ 5
KENOSHA   LAKESH 2100   76     320/ 16/ 19 1012.2
$$

TC  - TEMPERATURE IN CELSIUS
VSB - VISIBILITY IN STATUTE MILES
WCI - WIND CHILL INDEX
HX  - HEAT INDEX





USA.gov is the U.S. government's official web portal to all federal, state and local government web resources and services.